Airfield :







YOU CAN JOIN US ON...

 
LOGIN :

Register | Disclaimer

   EN    FR    IT 

 









Legend :    VFR   Marginal VFR   IFR   Intensive IFR   Very Intensive IFR
Visi :
Ceiling :
>= 8 km
>= 3000ft
5 to 8 km
1000 to 3000 ft
1500m to 5 km
500 to 1000 ft
800 to 1500m
200 to 500 ft
< 800m
< 200 ft
Symbols :   Thunderstorms  Fog  Heavy snow  Heavy precipitations  Wind > 20 kt






- Airport Elevation : 39 ft
- IATA code : YNA


CYNA - Natashquan

CURRENT METAR :
  • 171300Z AUTO 07007KT 9SM BKN190 OVC210 03/03 A3000 RMK SLP162

EXPIRED METARs :
  • 171200Z AUTO 06006KT 9SM CLR 01/01 A3001 RMK SLP163
  • 171100Z AUTO 06005KT 9SM FEW210 M01/M01 A3002 RMK SLP169

TAF TAF CYNA
Valid from the 17 at 08:00 until the 17 at 20:00 UTC


170738Z 1708/1720 07008KT P6SM SCT200
PROB30 1708/1713 3/4SM BR
FM171300 08010G20KT P6SM BKN180
FM171800 09015G25KT P6SM BKN120 RMK FCST BASED ON AUTO OBS. NXT FCST BY 171400Z



MET'MAP, your aeronautical weather chart ! - Copyright ORBIFLY December 2007 - Disclaimer

ORBIFLY MET'MAP TEAM :

Programming & Development : Alexandra Zaïnal
Concept & Development : Baudouin d'Aumeries
Co-Development & Prog : Marc-Olivier Méhu
Technical & hardware support : Manuel Goepfert

Contact : metmap@orbifly.com




SOURCES & CREDITS :

   NOAA